Simultaneous Nadir Overpasses (SNOs) Predictions

Prediction of SNOs between GOES-16 and NOAA-19 Satellite Orbit:

Table of predicted SNOs for the next 14.0 days since TLE Epoch: 3/16/2024
Index Date Time (GOES-16) GOES-16 Lat,Lon NOAA-19 Lat,Lon Distance(km) Time Diff (sec)
1 03/18/2024 02:19:42 -0.05, -75.20 -0.61, -77.75 289.98 80
2 03/19/2024 02:04:50 -0.04, -75.21 0.07, -74.78 49.41 80
3 03/20/2024 01:52:37 -0.04, -75.21 0.76, -71.81 388.95 80
4 03/21/2024 14:24:26 0.04, -75.24 1.00, -79.44 478.99 80
5 03/22/2024 14:12:13 0.04, -75.26 0.30, -76.48 138.66 80
6 03/23/2024 14:02:40 0.04, -75.27 -0.35, -73.50 201.98 80
7 03/26/2024 02:22:24 -0.04, -75.30 -0.72, -78.20 331.35 80
8 03/27/2024 02:07:32 -0.04, -75.32 -0.02, -75.23 9.54 80
9 03/28/2024 01:55:19 -0.04, -75.34 0.68, -72.27 350.50 80
